Content
SEND FEEDBACK

Daily
Averages
Monthly
Summary
United States of America

NEW YORK - UPPER EAST SIDE, NEW YORK


Home > North America > United States > New York
Elevation: 132 feet     Latitude: 40 47N     Longitude: 073 58W

WEATHER
 
SELECT A DAY
Number of Records: 148,109;   Date Range: 11/1/95 - 7/29/14
 
SHARE

PRINT THIS DATA

[ ← Previous Day ]
WEATHER ALMANAC - NOVEMBER 29, 2013
[ Next Day → ]
[ °C ]   °F
Weather ElementAverageHighLow
Temperature33.4 °F37.9 °F (11:51 am)28.9 °F (11:51 pm)
Dewpoint14.8 °F17.1 °F (9:51 am)10 °F (1:51 am)
Humidity46.6 %54 % (6:51 am)38 % (1:51 am)
Barometer30.60 in30.74 in (11:51 pm)30.48 in (1:51 am)
Wind Speed3.9 mph9.2 mph (8:51 pm)
Wind Gust16.1 mph (4:51 pm)
Weather ElementAverage
Visibility10 mi
Wind DirectionENE (81.7 °)

Weather ElementTotal
Precipitation---
Heating Degree Days31.6 (Base 65)
Averaged from 23 records on November 29, 2013
WEATHER CONDITIONS BREAKOUT
WIND DIRECTION BREAKOUT
WEATHER BY HOUR - NOVEMBER 29, 2013
[ °C ]   °F
Local TimeTemperatureDewpointHumidityBarometerVisibilityWind DirectionWind SpeedGust SpeedPrecipitationEventsConditions
1:51 AM33.1 °F10.0 °F38 %30.48 in10.0 miCalmOvercast
2:51 AM33.1 °F14.0 °F46 %30.48 in10.0 miCalmOvercast
3:51 AM32.0 °F14.0 °F48 %30.48 in10.0 miVariable3.5 mphOvercast
4:51 AM32.0 °F16.0 °F52 %30.49 in10.0 miNW (310°)3.5 mphOvercast
5:51 AM32.0 °F16.0 °F52 %30.50 in10.0 miVariable3.5 mphOvercast
6:51 AM30.9 °F16.0 °F54 %30.53 in10.0 miWest (280°)5.8 mphOvercast
7:51 AM32.0 °F16.0 °F52 %30.56 in10.0 miCalmOvercast
8:51 AM32.0 °F16.0 °F52 %30.58 in10.0 miWest (270°)4.6 mphClear
9:51 AM34.0 °F17.1 °F50 %30.59 in10.0 miCalmClear
10:51 AM36.0 °F16.0 °F44 %30.58 in10.0 miCalmClear
11:51 AM37.9 °F16.0 °F41 %30.58 in10.0 miNorthMostly Cloudy
12:51 PM36.0 °F16.0 °F44 %30.57 in10.0 miVariable5.8 mphPartly Cloudy
1:51 PM37.9 °F16.0 °F41 %30.58 in10.0 miCalmOvercast
2:51 PM37.0 °F16.0 °F42 %30.59 in10.0 miVariable4.6 mphOvercast
3:51 PM36.0 °F15.1 °F43 %30.61 in10.0 miVariable4.6 mphPartly Cloudy
4:51 PM35.1 °F15.1 °F44 %30.63 in10.0 miNorth (350°)6.9 mph16.1 mphClear
5:51 PM34.0 °F15.1 °F46 %30.66 in10.0 miVariable4.6 mphClear
6:51 PM33.1 °F12.9 °F43 %30.67 in10.0 miVariable4.6 mphClear
7:51 PM33.1 °F14.0 °F46 %30.69 in10.0 miVariable4.6 mphClear
8:51 PM32.0 °F15.1 °F50 %30.71 in10.0 miNorth (10°)9.2 mphClear
9:51 PM30.9 °F14.0 °F50 %30.72 in10.0 miNNW (330°)6.9 mphClear
10:51 PM30.0 °F12.9 °F49 %30.73 in10.0 miNNW (330°)6.9 mphClear
11:51 PM28.9 °F10.0 °F45 %30.74 in10.0 miVariable6.9 mphClear
Hourly data recorded from KNYC, located miles away from New York - Upper East Side, New York







STORIES FROM OUR PARTNERS